Location: Contre
(49.7477°N, 2.0963°E)
Time: 11:42:32
(UTC+00:00)

Meteor 2-12 Rocket - Pass Details

Date: 10 November 2025
Orbit: 935 x 957 km, 82.5° (Epoch: 05 December)

Event Time Altitude Azimuth Distance (km) Brightness Sun altitude
Rises 20:02:43 0° 338° (NNW) 3,634 8.0 -36.7°
Reaches altitude 10° 20:06:08 10° 319° (NW) 2,678 7.4 -37.2°
Maximum altitude 20:09:48 17° 282° (WNW) 2,215 7.0 -37.8°
Drops below altitude 10° 20:13:27 10° 244° (WSW) 2,658 7.2 -38.3°
Sets 20:16:50 0° 225° (SW) 3,593 7.7 -38.8°
